| time (UTC) | temp F | wind direction | speed MPH | gust MPH | rain 1hr in | rain 24hr in | rain mn in | humidity % | barometer mb |
| 20260905120030 | 64 | 253 | 30.0 | 37.0 | 0.00 | 0.00 | 0.00 | 71 | 1020.6 |
| 20260905115030 | 64 | 271 | 28.0 | 35.0 | 0.00 | 0.00 | 0.00 | 70 | 1020.6 |
| 20260905114030 | 64 | 276 | 25.0 | 32.0 | 0.00 | 0.00 | 0.00 | 71 | 1020.6 |
| 20260905113030 | 64 | 288 | 22.0 | 29.0 | 0.00 | 0.00 | 0.00 | 73 | 1020.5 |
| 20260905112030 | 64 | 281 | 28.0 | 36.0 | 0.00 | 0.00 | 0.00 | 73 | 1020.2 |
| 20260905111030 | 64 | 270 | 30.0 | 35.0 | 0.00 | 0.00 | 0.00 | 73 | 1020.1 |
| 20260905110030 | 64 | 261 | 27.0 | 36.0 | 0.00 | 0.00 | 0.00 | 70 | 1019.8 |
| 20260905105030 | 64 | 261 | 28.0 | 33.0 | 0.00 | 0.00 | 0.00 | 74 | 1019.8 |
| 20260905104030 | 64 | 269 | 28.0 | 35.0 | 0.00 | 0.00 | 0.00 | 75 | 1019.6 |
| 20260905103030 | 63 | 255 | 27.0 | 34.0 | 0.00 | 0.00 | 0.00 | 79 | 1019.6 |
| 20260905102030 | 63 | 265 | 27.0 | 35.0 | 0.00 | 0.00 | 0.00 | 79 | 1019.3 |
| 20260905101030 | 63 | 277 | 28.0 | 34.0 | 0.00 | 0.00 | 0.00 | 82 | 1019.4 |
| 20260905100030 | 63 | 259 | 30.0 | 39.0 | 0.00 | 0.00 | 0.00 | 79 | 1019.2 |
| 20260905095030 | 64 | 252 | 32.0 | 39.0 | 0.00 | 0.00 | 0.00 | 77 | 1018.9 |
| 20260905094030 | 64 | 272 | 28.0 | 34.0 | 0.00 | 0.00 | 0.00 | 75 | 1018.9 |
| 20260905093030 | 64 | 273 | 29.0 | 35.0 | 0.00 | 0.00 | 0.00 | 73 | 1018.7 |
| 20260905092029 | 64 | 256 | 28.0 | 33.0 | 0.00 | 0.00 | 0.00 | 75 | 1018.8 |
| 20260905091030 | 63 | 265 | 30.0 | 37.0 | 0.00 | 0.00 | 0.00 | 73 | 1018.5 |
| 20260905090030 | 63 | 262 | 33.0 | 40.0 | 0.00 | 0.00 | 0.00 | 73 | 1018.3 |
| 20260905085030 | 64 | 258 | 33.0 | 40.0 | 0.00 | 0.00 | 0.00 | 78 | 1018.1 |
| 20260905084030 | 63 | 258 | 31.0 | 40.0 | 0.00 | 0.00 | 0.00 | 78 | 1017.8 |
| 20260905083030 | 63 | 259 | 30.0 | 39.0 | 0.00 | 0.00 | 0.00 | 78 | 1017.8 |
| 20260905082030 | 63 | 262 | 32.0 | 38.0 | 0.00 | 0.00 | 0.00 | 78 | 1017.4 |
| 20260905081030 | 63 | 267 | 32.0 | 40.0 | 0.00 | 0.00 | 0.00 | 79 | 1017.3 |
| 20260905080030 | 63 | 263 | 30.0 | 35.0 | 0.00 | 0.00 | 0.00 | 80 | 1017.1 |
| 20260905075030 | 63 | 260 | 30.0 | 37.0 | 0.00 | 0.00 | 0.00 | 79 | 1017.0 |
| 20260905074029 | 63 | 253 | 28.0 | 36.0 | 0.00 | 0.00 | 0.00 | 79 | 1016.8 |
| 20260905073030 | 63 | 255 | 26.0 | 33.0 | 0.00 | 0.00 | 0.00 | 80 | 1016.7 |
| 20260905072030 | 63 | 260 | 28.0 | 34.0 | 0.00 | 0.00 | 0.00 | 79 | 1016.5 |
| 20260905071030 | 63 | 257 | 29.0 | 36.0 | 0.00 | 0.00 | 0.00 | 80 | 1016.4 |
| 20260905070030 | 63 | 255 | 26.0 | 35.0 | 0.00 | 0.00 | 0.00 | 79 | 1016.4 |
| 20260905065030 | 63 | 244 | 22.0 | 30.0 | 0.00 | 0.00 | 0.00 | 81 | 1016.4 |
| 20260905064030 | 63 | 244 | 22.0 | 29.0 | 0.00 | 0.00 | 0.00 | 81 | 1016.4 |
| 20260905063029 | 63 | 257 | 22.0 | 29.0 | 0.00 | 0.00 | 0.00 | 81 | 1016.3 |
| 20260905062030 | 63 | 240 | 20.0 | 28.0 | 0.00 | 0.00 | 0.00 | 82 | 1016.3 |
| 20260905061030 | 63 | 221 | 19.0 | 24.0 | 0.00 | 0.00 | 0.00 | 82 | 1016.3 |
| 20260905060030 | 63 | 245 | 18.0 | 27.0 | 0.00 | 0.00 | 0.00 | 81 | 1016.2 |
| 20260905055030 | 63 | 238 | 21.0 | 26.0 | 0.00 | 0.00 | 0.00 | 81 | 1016.1 |
| 20260905054030 | 63 | 230 | 18.0 | 26.0 | 0.00 | 0.00 | 0.00 | 81 | 1016.1 |
| 20260905053030 | 63 | 229 | 19.0 | 25.0 | 0.00 | 0.00 | 0.00 | 80 | 1015.9 |
| 20260905052029 | 63 | 235 | 17.0 | 24.0 | 0.00 | 0.00 | 0.00 | 81 | 1015.8 |
| 20260905051030 | 63 | 239 | 19.0 | 27.0 | 0.00 | 0.00 | 0.00 | 80 | 1015.7 |
| 20260905050030 | 63 | 243 | 17.0 | 24.0 | 0.00 | 0.00 | 0.00 | 80 | 1015.7 |
| 20260905045030 | 63 | 227 | 19.0 | 27.0 | 0.00 | 0.00 | 0.00 | 81 | 1015.6 |
| 20260905044030 | 63 | 240 | 18.0 | 25.0 | 0.00 | 0.00 | 0.00 | 81 | 1015.6 |
| 20260905043030 | 63 | 219 | 19.0 | 28.0 | 0.00 | 0.00 | 0.00 | 80 | 1015.6 |
| 20260905042029 | 63 | 243 | 19.0 | 28.0 | 0.00 | 0.00 | 0.00 | 80 | 1015.6 |
| 20260905041030 | 63 | 242 | 17.0 | 27.0 | 0.00 | 0.00 | 0.00 | 80 | 1015.5 |
| 20260905040030 | 63 | 239 | 17.0 | 25.0 | 0.00 | 0.00 | 0.00 | 79 | 1015.4 |
| 20260905035030 | 63 | 234 | 20.0 | 28.0 | 0.00 | 0.00 | 0.00 | 78 | 1015.3 |
| 20260905034030 | 63 | 245 | 20.0 | 27.0 | 0.00 | 0.00 | 0.00 | 78 | 1015.3 |
| 20260905033030 | 63 | 251 | 17.0 | 29.0 | 0.00 | 0.00 | 0.00 | 77 | 1015.4 |
| 20260905032030 | 63 | 246 | 21.0 | 27.0 | 0.00 | 0.00 | 0.00 | 78 | 1015.3 |
| 20260905031030 | 64 | 257 | 22.0 | 27.0 | 0.00 | 0.00 | 0.00 | 78 | 1015.2 |
| 20260905030030 | 63 | 254 | 21.0 | 29.0 | 0.00 | 0.00 | 0.00 | 77 | 1015.1 |
| 20260905025029 | 64 | 241 | 16.0 | 26.0 | 0.00 | 0.00 | 0.00 | 77 | 1015.1 |
| 20260905024030 | 64 | 259 | 20.0 | 26.0 | 0.00 | 0.00 | 0.00 | 76 | 1015.0 |
| 20260905023030 | 64 | 246 | 21.0 | 28.0 | 0.00 | 0.00 | 0.00 | 77 | 1015.0 |
| 20260905022030 | 64 | 238 | 19.0 | 27.0 | 0.00 | 0.00 | 0.00 | 77 | 1014.9 |
| 20260905021030 | 64 | 245 | 22.0 | 30.0 | 0.00 | 0.00 | 0.00 | 76 | 1014.8 |
| 20260905020030 | 64 | 257 | 23.0 | 30.0 | 0.00 | 0.00 | 0.00 | 76 | 1014.8 |
| 20260905015030 | 64 | 255 | 22.0 | 29.0 | 0.00 | 0.00 | 0.00 | 77 | 1014.7 |
| 20260905014030 | 64 | 256 | 23.0 | 28.0 | 0.00 | 0.00 | 0.00 | 77 | 1014.6 |
| 20260905013029 | 64 | 253 | 23.0 | 30.0 | 0.00 | 0.00 | 0.00 | 76 | 1014.6 |
| 20260905012030 | 64 | 259 | 22.0 | 29.0 | 0.00 | 0.00 | 0.00 | 76 | 1014.5 |
| 20260905011030 | 64 | 252 | 24.0 | 30.0 | 0.00 | 0.00 | 0.00 | 75 | 1014.6 |
| 20260905010029 | 64 | 256 | 24.0 | 32.0 | 0.00 | 0.00 | 0.00 | 76 | 1014.5 |
| 20260905005030 | 64 | 244 | 20.0 | 27.0 | 0.00 | 0.00 | 0.00 | 77 | 1014.5 |
| 20260905004030 | 64 | 256 | 22.0 | 28.0 | 0.00 | 0.00 | 0.00 | 77 | 1014.4 |
| 20260905003030 | 64 | 242 | 23.0 | 31.0 | 0.00 | 0.00 | 0.00 | 76 | 1014.4 |
| 20260905002030 | 64 | 257 | 25.0 | 29.0 | 0.00 | 0.00 | 0.00 | 76 | 1014.5 |
| 20260905001030 | 64 | 255 | 24.0 | 33.0 | 0.00 | 0.00 | 0.00 | 75 | 1014.5 |
| 20260905000030 | 65 | 250 | 26.0 | 32.0 | 0.00 | 0.00 | 0.00 | 75 | 1014.4 |
| 20260904235030 | 65 | 253 | 27.0 | 33.0 | 0.00 | 0.00 | 0.00 | 75 | 1014.3 |
| 20260904234030 | 65 | 263 | 26.0 | 32.0 | 0.00 | 0.00 | 0.00 | 76 | 1014.2 |
| 20260904233030 | 65 | 267 | 26.0 | 33.0 | 0.00 | 0.00 | 0.00 | 75 | 1014.4 |
| 20260904232029 | 65 | 265 | 26.0 | 32.0 | 0.00 | 0.00 | 0.00 | 76 | 1014.3 |
| 20260904231030 | 65 | 267 | 25.0 | 29.0 | 0.00 | 0.00 | 0.00 | 77 | 1014.2 |
| 20260904230030 | 65 | 268 | 26.0 | 31.0 | 0.00 | 0.00 | 0.00 | 75 | 1014.1 |
| 20260904225030 | 65 | 275 | 26.0 | 33.0 | 0.00 | 0.00 | 0.00 | 75 | 1014.1 |
| 20260904224030 | 65 | 263 | 26.0 | 31.0 | 0.00 | 0.00 | 0.00 | 76 | 1014.2 |
| 20260904223030 | 65 | 252 | 27.0 | 33.0 | 0.00 | 0.00 | 0.00 | 75 | 1014.0 |
| 20260904222030 | 65 | 256 | 26.0 | 33.0 | 0.00 | 0.00 | 0.00 | 76 | 1013.9 |
| 20260904221030 | 65 | 259 | 29.0 | 35.0 | 0.00 | 0.00 | 0.00 | 75 | 1013.8 |
| 20260904220030 | 65 | 254 | 28.0 | 37.0 | 0.00 | 0.00 | 0.02 | 75 | 1013.8 |
| 20260904215030 | 65 | 257 | 28.0 | 35.0 | 0.00 | 0.00 | 0.02 | 76 | 1013.6 |
| 20260904214030 | 65 | 253 | 28.0 | 37.0 | 0.00 | 0.00 | 0.02 | 74 | 1013.5 |
| 20260904213030 | 65 | 253 | 29.0 | 36.0 | 0.00 | 0.00 | 0.02 | 75 | 1013.5 |
| 20260904212029 | 65 | 263 | 29.0 | 37.0 | 0.00 | 0.00 | 0.02 | 76 | 1013.3 |
| 20260904211030 | 65 | 258 | 27.0 | 36.0 | 0.00 | 0.00 | 0.02 | 74 | 1013.3 |
| 20260904210030 | 65 | 254 | 28.0 | 36.0 | 0.00 | 0.00 | 0.02 | 75 | 1013.3 |
| 20260904205030 | 65 | 259 | 27.0 | 35.0 | 0.00 | 0.00 | 0.02 | 74 | 1013.2 |
| 20260904204030 | 65 | 239 | 22.0 | 30.0 | 0.00 | 0.00 | 0.02 | 77 | 1013.4 |
| 20260904203030 | 65 | 254 | 24.0 | 34.0 | 0.00 | 0.00 | 0.02 | 75 | 1013.3 |
| 20260904202029 | 65 | 253 | 24.0 | 32.0 | 0.00 | 0.00 | 0.02 | 77 | 1013.3 |
| 20260904201029 | 65 | 241 | 24.0 | 30.0 | 0.00 | 0.00 | 0.02 | 76 | 1013.3 |
| 20260904200030 | 65 | 255 | 26.0 | 33.0 | 0.00 | 0.00 | 0.02 | 75 | 1013.2 |
| 20260904195030 | 65 | 249 | 25.0 | 33.0 | 0.00 | 0.00 | 0.02 | 76 | 1013.2 |
| 20260904194030 | 65 | 253 | 26.0 | 33.0 | 0.00 | 0.00 | 0.02 | 75 | 1013.0 |
| 20260904193030 | 65 | 237 | 26.0 | 35.0 | 0.00 | 0.00 | 0.02 | 77 | 1012.9 |
| 20260904192030 | 65 | 244 | 26.0 | 34.0 | 0.00 | 0.00 | 0.02 | 76 | 1012.9 |
| 20260904191030 | 65 | 241 | 24.0 | 34.0 | 0.00 | 0.00 | 0.02 | 76 | 1012.8 |
| 20260904190030 | 65 | 247 | 24.0 | 31.0 | 0.00 | 0.00 | 0.02 | 75 | 1012.7 |
| 20260904185030 | 65 | 265 | 23.0 | 34.0 | 0.00 | 0.00 | 0.02 | 74 | 1012.6 |
| 20260904184030 | 65 | 259 | 29.0 | 37.0 | 0.00 | 0.00 | 0.02 | 72 | 1012.4 |
| 20260904183030 | 65 | 262 | 28.0 | 37.0 | 0.00 | 0.00 | 0.02 | 75 | 1012.3 |
| 20260904182030 | 65 | 256 | 28.0 | 37.0 | 0.00 | 0.00 | 0.02 | 76 | 1012.2 |
| 20260904181030 | 65 | 262 | 29.0 | 36.0 | 0.00 | 0.00 | 0.02 | 77 | 1012.1 |
| 20260904180030 | 65 | 263 | 30.0 | 36.0 | 0.00 | 0.00 | 0.02 | 77 | 1011.9 |
| 20260904175030 | 65 | 270 | 29.0 | 36.0 | 0.00 | 0.00 | 0.02 | 77 | 1011.7 |
| 20260904174030 | 65 | 285 | 29.0 | 35.0 | 0.00 | 0.00 | 0.02 | 76 | 1011.5 |
| 20260904173030 | 65 | 284 | 31.0 | 38.0 | 0.00 | 0.00 | 0.02 | 74 | 1011.5 |
| 20260904172030 | 65 | 272 | 30.0 | 36.0 | 0.00 | 0.00 | 0.02 | 74 | 1011.3 |
| 20260904171030 | 65 | 274 | 33.0 | 41.0 | 0.00 | 0.00 | 0.02 | 78 | 1011.1 |
| 20260904170030 | 65 | 267 | 33.0 | 39.0 | 0.00 | 0.00 | 0.02 | 78 | 1011.1 |
| 20260904165030 | 65 | 268 | 30.0 | 41.0 | 0.00 | 0.00 | 0.02 | 79 | 1011.1 |
| 20260904164030 | 65 | 268 | 32.0 | 38.0 | 0.00 | 0.00 | 0.02 | 79 | 1011.0 |
| 20260904163029 | 64 | 282 | 31.0 | 40.0 | 0.00 | 0.00 | 0.02 | 83 | 1010.9 |
| 20260904162030 | 66 | 255 | 27.0 | 36.0 | 0.00 | 0.00 | 0.02 | 82 | 1010.9 |
| 20260904161030 | 66 | 251 | 26.0 | 33.0 | 0.00 | 0.00 | 0.02 | 82 | 1010.8 |
| 20260904160029 | 66 | 249 | 28.0 | 36.0 | 0.00 | 0.00 | 0.02 | 82 | 1010.6 |
| 20260904155030 | 66 | 256 | 28.0 | 36.0 | 0.00 | 0.00 | 0.02 | 82 | 1010.7 |
| 20260904154029 | 66 | 255 | 32.0 | 41.0 | 0.00 | 0.00 | 0.02 | 82 | 1010.3 |
| 20260904153029 | 66 | 253 | 34.0 | 42.0 | 0.00 | 0.00 | 0.02 | 81 | 1010.2 |
| 20260904152030 | 66 | 255 | 32.0 | 43.0 | 0.00 | 0.00 | 0.02 | 82 | 1010.3 |
| 20260904151030 | 66 | 263 | 30.0 | 40.0 | 0.00 | 0.00 | 0.02 | 83 | 1010.3 |
| 20260904150030 | 66 | 258 | 28.0 | 39.0 | 0.00 | 0.00 | 0.02 | 84 | 1010.2 |
| 20260904145030 | 66 | 251 | 33.0 | 43.0 | 0.00 | 0.00 | 0.02 | 84 | 1010.0 |
| 20260904144029 | 66 | 257 | 30.0 | 39.0 | 0.00 | 0.00 | 0.02 | 85 | 1009.9 |
| 20260904143029 | 66 | 264 | 31.0 | 39.0 | 0.00 | 0.00 | 0.02 | 85 | 1009.7 |
| 20260904142030 | 66 | 242 | 27.0 | 37.0 | 0.00 | 0.00 | 0.02 | 88 | 1009.8 |
| 20260904141030 | 65 | 241 | 22.0 | 30.0 | 0.00 | 0.00 | 0.02 | 91 | 1009.7 |
| 20260904140030 | 65 | 236 | 21.0 | 34.0 | 0.00 | 0.00 | 0.02 | 91 | 1009.5 |
| 20260904135030 | 65 | 236 | 26.0 | 32.0 | 0.00 | 0.00 | 0.02 | 92 | 1009.5 |
| 20260904134030 | 64 | 231 | 23.0 | 33.0 | 0.00 | 0.00 | 0.02 | 92 | 1009.2 |
| 20260904133030 | 64 | 237 | 26.0 | 33.0 | 0.00 | 0.00 | 0.02 | 92 | 1009.2 |
| 20260904132030 | 64 | 224 | 24.0 | 33.0 | 0.00 | 0.00 | 0.02 | 93 | 1009.2 |
| 20260904131030 | 64 | 234 | 24.0 | 32.0 | 0.00 | 0.00 | 0.02 | 92 | 1009.4 |
| 20260904130030 | 63 | 245 | 23.0 | 32.0 | 0.00 | 0.00 | 0.02 | 92 | 1009.1 |
| 20260904125030 | 63 | 237 | 26.0 | 34.0 | 0.00 | 0.00 | 0.02 | 93 | 1009.0 |
| 20260904124030 | 63 | 249 | 26.0 | 37.0 | 0.00 | 0.00 | 0.02 | 93 | 1008.8 |
| 20260904123030 | 63 | 243 | 24.0 | 36.0 | 0.00 | 0.00 | 0.02 | 93 | 1008.8 |
| 20260904122030 | 63 | 246 | 24.0 | 30.0 | 0.00 | 0.00 | 0.02 | 94 | 1008.9 |
| 20260904121030 | 63 | 251 | 28.0 | 38.0 | 0.00 | 0.00 | 0.02 | 93 | 1008.6 |